Helicity
25 16 36 52 44 49 49 38 28 28 24 17 14 15 14 8 11 16 31 6 -4 39 21 18 29 38 26 31 8 -1 -7 -10 8
14 -2 21 10 13 21 21 21 23 20 16 12 11 16 20 14 11 15 33 52 59 72 84 104 117 104 103 97 80 60 55 43 25
16 14 13 -1 -1 7 13 26 26 21 17 14 15 24 26 20 22 25 30 27 56 76 90 102 95 109 111 108 108 102 113 129 133
15 10 9 7 6 14 22 27 25 20 20 24 34 44 40 32 26 27 26 60 78 74 79 89 90 93 103 108 109 96 111 133 156
26 14 11 16 19 25 24 26 29 25 24 28 49 54 51 40 33 30 42 70 73 69 90 90 93 88 96 95 106 104 98 106 134
29 22 11 18 28 33 25 37 42 52 52 55 58 47 38 40 40 38 62 72 75 73 88 87 88 80 84 84 85 86 83 88 100
42 38 33 31 43 49 40 56 61 48 43 49 54 44 48 48 51 52 56 77 82 74 84 92 75 68 70 71 72 71 70 69 73
58 60 53 54 61 59 58 55 47 49 46 49 51 56 57 58 60 62 57 108 98 72 76 80 72 63 64 66 67 66 68 72 73
68 70 70 71 72 80 72 65 62 60 57 57 62 66 68 68 69 71 71 131 101 75 74 75 69 63 61 62 64 65 69 69 69
75 74 83 80 90 89 90 79 77 75 74 71 72 81 86 84 84 86 126 153 102 78 79 71 62 54 57 54 53 60 65 66 68
90 82 84 93 90 92 94 88 87 90 88 96 95 99 96 93 91 97 111 141 116 98 83 66 62 60 53 51 49 50 52 58 62
102 99 100 100 109 107 113 109 105 110 109 119 118 106 96 89 96 104 110 117 121 100 83 76 71 67 68 55 51 48 41 39 44
113 118 110 115 134 130 128 133 131 125 124 127 118 111 102 93 91 95 100 106 107 104 96 79 80 84 77 68 65 53 50 42 37
130 125 114 131 149 144 144 155 146 145 139 129 123 113 106 94 90 91 102 105 110 110 106 110 110 100 86 76 69 59 54 49 44
148 134 125 142 165 165 172 170 174 155 158 151 136 124 111 101 93 91 108 112 116 109 104 104 106 106 92 81 74 68 59 52 49
182 169 143 151 165 182 170 204 187 207 210 198 152 123 116 105 100 114 126 131 125 119 115 108 107 102 107 95 81 73 70 58 55
227 197 173 163 187 178 206 246 281 239 217 214 184 118 112 121 132 142 140 147 149 126 138 133 136 128 117 102 100 95 88 85 80
260 237 239 211 220 239 241 270 288 310 249 244 202 161 111 123 151 149 159 162 173 155 166 169 165 153 145 127 125 138 136 119 114
274 256 271 263 272 258 287 308 296 324 347 284 209 251 179 152 112 161 173 179 173 183 201 206 186 173 167 167 161 155 138 128 118
265 251 275 300 323 278 323 342 307 312 329 366 369 323 296 284 262 226 219 224 218 205 230 238 200 186 174 165 170 168 157 149 132
Wind_Speed
30 30 30 30 30 29 29 30 31 31 30 30 30 31 31 30 32 34 36 34 35 37 32 38 40 35 37 38 35 33 35 32 31
30 29 28 29 29 30 30 31 31 31 30 30 30 32 32 29 31 33 35 36 36 37 38 40 43 40 43 44 46 45 44 37 31
28 28 28 27 28 29 29 31 31 30 30 30 30 30 30 31 31 32 34 34 34 36 37 38 38 39 41 42 42 42 42 42 39
27 27 26 27 27 27 28 29 29 29 29 29 30 28 28 29 30 32 34 32 34 35 36 37 38 39 39 40 40 40 39 38 38
24 25 24 25 25 26 26 27 28 29 29 29 28 29 29 30 30 32 32 32 34 35 34 36 38 39 39 38 39 39 39 38 38
19 20 21 22 22 23 24 25 27 28 29 29 27 27 29 29 30 31 30 32 35 35 35 35 37 38 38 38 39 39 39 39 39
15 16 17 18 19 21 22 24 25 27 28 28 28 29 29 30 30 31 30 30 33 35 35 35 36 37 38 38 38 39 39 39 39
12 13 14 15 16 19 20 21 23 25 26 27 28 28 29 30 30 32 28 28 32 34 33 34 34 36 37 38 38 39 40 41 41
10 12 12 13 15 17 20 21 22 23 25 26 27 27 28 29 30 31 25 26 29 31 32 32 33 35 36 37 38 39 40 41 42
11 13 14 15 16 16 18 19 20 22 24 26 27 27 28 29 29 31 25 24 26 29 30 31 33 34 35 37 38 39 41 42 43
15 15 16 16 14 15 16 16 17 20 22 25 27 27 26 26 26 26 24 23 24 25 27 29 30 33 34 37 39 40 42 44 44
19 19 18 17 16 16 18 18 18 19 24 25 27 26 24 24 24 24 24 23 23 23 25 27 29 32 35 37 40 42 43 45 46
27 26 22 20 18 17 16 13 14 17 20 23 24 24 23 23 23 22 21 21 21 22 24 26 27 31 35 37 40 42 45 47 48
31 29 27 22 21 21 18 18 17 16 20 23 25 25 24 22 22 20 19 19 20 21 23 25 27 30 34 36 41 44 47 50 50
33 33 30 27 25 24 21 20 18 22 21 24 26 27 26 24 21 20 20 19 18 19 22 23 27 31 35 38 42 46 49 54 53
37 38 34 31 30 28 24 23 22 25 20 24 30 34 31 28 26 23 21 20 19 19 20 25 27 32 38 42 45 48 52 56 57
40 41 39 37 37 34 29 26 29 29 17 27 30 34 36 34 28 26 24 21 21 21 22 25 28 33 38 43 48 51 53 55 57
45 44 43 42 41 39 35 32 30 31 27 28 29 35 37 35 34 33 30 25 24 24 25 27 29 33 37 42 46 49 53 56 58
50 49 46 44 43 43 40 38 35 33 33 33 33 38 41 38 40 40 37 33 31 26 26 29 32 35 39 42 47 51 55 57 61
57 54 51 49 48 47 45 43 41 38 38 37 40 43 42 40 44 49 38 33 33 33 34 33 36 38 40 44 48 53 58 62 66
Wind_Direction
61 46 51 40 36 41 41 38 35 39 42 37 29 21 20 26 20 15 11 9 8 13 24 15 18 30 21 17 15 14 5 4 9
61 46 48 47 47 46 42 39 39 41 39 32 27 21 22 28 21 16 10 14 17 17 20 17 22 23 24 22 22 23 15 9 8
59 58 57 54 50 47 44 44 44 39 35 28 22 25 28 25 23 18 10 11 13 13 14 12 15 15 12 13 13 12 10 13 11
54 56 57 54 50 47 47 45 39 35 31 27 24 28 27 23 19 15 7 17 15 11 15 15 13 12 11 11 11 10 7 360 356
50 51 51 51 49 45 42 37 31 27 24 27 31 27 22 14 10 7 8 8 6 6 11 11 9 9 10 9 8 5 2 359 357
41 38 38 38 39 38 30 26 22 19 19 22 25 18 10 9 7 3 8 7 5 5 6 8 8 8 9 9 6 4 360 358 354
29 31 29 28 29 26 21 21 20 16 14 15 13 9 7 3 2 2 5 9 7 6 7 8 10 9 9 8 6 3 359 357 355
14 13 13 12 12 8 13 11 8 8 8 6 3 2 1 1 359 355 5 13 10 10 11 11 12 11 9 7 5 2 359 354 352
346 350 354 351 350 352 352 355 355 357 358 358 359 359 357 356 355 355 7 14 12 12 14 14 12 9 7 5 2 359 357 354 350
314 318 325 330 332 337 340 344 349 354 356 355 354 354 353 353 354 355 5 12 12 12 13 11 9 7 5 3 1 358 355 351 349
292 300 303 310 317 325 330 336 341 345 350 350 350 350 352 355 357 1 9 11 13 16 14 11 9 5 2 358 356 356 354 351 347
282 287 289 289 299 309 316 325 331 339 340 343 343 347 351 353 356 360 3 10 12 14 13 12 7 3 359 355 354 351 350 347 345
280 283 283 280 285 293 299 308 319 329 335 339 341 343 346 348 351 356 0 4 6 8 8 8 10 4 357 353 351 349 347 344 342
275 278 280 273 274 279 285 296 305 315 324 330 334 334 336 340 342 348 355 357 360 0 0 358 359 358 354 351 347 343 342 341 339
268 275 272 268 268 269 274 281 293 306 313 322 326 326 328 331 333 337 340 346 351 353 351 351 349 347 345 343 342 339 338 335 335
265 270 267 263 261 260 259 275 277 295 302 314 317 316 319 320 322 325 328 331 336 341 344 339 341 339 337 336 336 335 333 331 330
263 265 264 261 264 262 255 258 278 289 281 303 313 312 311 310 313 315 317 320 326 327 332 332 332 332 332 331 331 331 330 331 330
260 261 262 262 260 258 254 253 259 272 277 290 304 310 307 315 310 304 309 310 313 317 321 323 325 327 329 330 332 332 331 330 330
260 261 259 260 260 260 255 255 252 264 267 280 284 300 306 309 309 305 303 306 305 307 313 313 319 323 326 328 328 328 328 328 327
263 260 260 260 260 260 256 254 251 252 265 269 286 289 295 300 300 302 307 305 304 303 308 312 313 318 322 324 325 325 325 325 324